STARLINK-33748, 63383

Orbit data source: Space-Track

STARLINK-33748, 63383 is a payload satellite owned by SpaceX/Seattle (US) in LEO that was launched on Wed, 26 Mar 2025 UTC via an FALCON 9 launch vehicle from the Air Force Western Test Range (AFWTR). Payload-class satellites include a variety of spacecraft equipped with specific instruments for various scientific and technological missions. These include communications satellites like Starlink; space stations such as the ISS; scientific satellites like the Hubble; Earth observation satellites from companies like Planet Labs, Umbra, and HawkEye 360; GPS; miniature CubeSats for education and research; and military/defense satellites.

Loading next visibility...
Identifier
63383, 2025-063W
Orbit
LEO
Country
Flag of USUS
Related business
Manufacturer
SpaceX/Seattle
Mission
Operational Commercial Communications
Bus & Motor
STARLINK V2MO, Unknown motor
Mass
575 kg wet, ~530 kg dry
Launch date (UTC)
2025-03-26 (1 year ago)
Launch vehicle
FALCON 9
Launch site
Air Force Western Test Range (AFWTR)
Object type
Payload
Rocket body
Debris
Shape & HBR
Box + 2 Pan, 17.7 m
Radar Cross Section
36.964 m², Large (>1 m²)

Expand to show TLE details & history
Last TLE update: 1 day ago

TLE from 1 day ago
0 STARLINK-33748
1 63383U 25063W   26170.80566129  .00014189  00000-0  49039-3 0  9993
2 63383  53.1605 308.8109 0001531  55.0404 305.0740 15.30190909 70241
Epoch: 2026-06-19T19:20Z
TLE epoch observation values (Epoch: 2026-06-19T19:20:09.135Z)
Latitude
-0.00005°
Longitude
110.74344°
Altitude
475.539 km
Speed
7.63 km/s
True Right ascension
20h 35m 14s
True Declination
0° 00' 00"
Sunlit
Object was in full shadow at epoch
Visualization orbit readout
Latitude
Unknown
Longitude
Unknown
Altitude
Unknown
Speed
Unknown
Apparent Right ascension
Unknown
Apparent Declination
Unknown
Sunlit
N/A
Visualization observer readout
Local Sidereal Time
07:16:11
Azimuth
Unknown
Elevation
Unknown
Doppler factor
Unknown
Orbital elements
Apogee altitude
476.548 km
Perigee altitude
474.449 km
Semi-major axis
6,853.636 km
Eccentricity
0.00015
Inclination
53.1605°
RAAN
308.8109°
Arg. of periapsis
55.0404°
True anomaly
305.05964°
Mean anomaly
305.074°
Eccentric anomaly
305.06682°
Mean motion
3.82527 °/min
Orbital period
94.11 mins
BSTAR
0.00049039
Loading maneuver chart data...
Computing Atmospheric mass density...
Loading historical data...
Loading historical data...
Loading historical data...
Loading historical data...
Loading historical data...
Loading historical data...
Loading historical data...

Documentation

Showing up to 5 results
|